#timestamp,LO_Frequency,Hit,StdDev 
1516222815.6,286046998.2,N
1516222835.4,286047002.7,N
1516222855.3,286047004.2,Y
1516222875.1,286047001.5,P
1516222895.9,286047007.2,P
1516222915.7,286047004.7,N
1516222935.5,286047003.0,N
1516222955.4,286047006.0,N
1516222975.2,286047004.4,N
1516222995.1,286047001.9,N
1516222996.0,286047001.9,N
1516223015.8,286047002.4,N
1516223035.6,286047000.4,N
1516223055.5,286047000.1,N
1516223075.3,286047000.3,N
1516223095.2,286046998.1,N
1516223115.9,286046998.5,N
1516223135.7,286047000.6,N
1516223155.6,286046998.3,N
1516223175.4,286046999.3,N
1516223195.3,286046998.4,N
1516223215.1,286047000.7,N
1516223216.0,286047000.7,N
1516223235.8,286046998.2,N
1516223255.7,286047000.7,N
1516223275.5,286046998.6,N
1516223295.3,286046998.4,N
1516223315.2,286047001.2,N
1516223335.0,286047001.0,N
1516223335.9,286047001.0,N
1516223355.8,286047000.5,N
1516223375.6,286047002.2,N
1516223395.4,286047002.0,N
1516223415.3,286047002.2,N
1516223435.1,286047001.5,N
1516223455.9,286047001.7,N
1516223475.7,286047001.6,N
1516223495.5,286047002.1,N
1516223515.4,286047000.2,N
1516223535.2,286047000.5,N
1516223555.1,286046999.9,N
1516223556.0,286046999.9,N
1516223575.8,286047001.0,N
1516223595.6,286047001.0,N
1516223615.5,286047002.6,N
1516223635.3,286047003.8,N
1516223655.2,286047001.7,N
1516223675.9,286047002.9,N
1516223695.7,286047001.4,N
1516223715.6,286047001.9,N
1516223735.4,286047001.9,N
1516223755.3,286047001.9,N
1516223775.1,286047001.6,N
1516223776.0,286047001.6,N
1516223795.8,286047002.6,N
1516223815.7,286047003.1,N
1516223835.5,286047004.3,Y
1516223855.4,286047003.9,P
1516223875.2,286047001.9,N
1516223895.0,286047002.5,N
1516223895.9,286047002.5,N
1516223915.8,286047004.1,Y
1516223935.6,286047004.0,P
1516223955.5,286047006.8,P
1516223975.3,286047007.8,P
1516223995.1,286047006.8,Y
1516224015.9,286046996.8,P
1516224035.7,286046995.6,N
1516224055.6,286046994.7,N
1516224075.4,286046992.0,N
1516224095.2,286046994.0,N
1516224115.1,286046994.1,N
1516224116.0,286046994.1,N
1516224135.8,286046992.0,N
1516224155.7,286046992.8,N
1516224175.5,286046994.3,N
1516224195.3,286046994.8,N
1516224215.2,286046993.6,N
1516224235.0,286046993.9,N
1516224235.9,286046993.9,N
1516224255.7,286046994.8,N
1516224275.6,286046997.9,N
1516224295.4,286046999.3,N
1516224315.3,286046998.6,N
1516224335.1,286047002.0,N
1516224355.8,286047004.5,N
1516224375.7,286047004.6,N
1516224395.5,286047004.2,N
1516224415.4,286047005.4,N
1516224435.2,286047004.7,N
1516224455.0,286047003.7,N
1516224455.9,286047003.7,N
1516224475.8,286047002.6,N
1516224495.6,286047000.8,N
1516224515.4,286047000.7,N
1516224535.3,286046999.4,N
1516224555.1,286046998.2,N
1516224575.9,286047000.7,N
1516224595.7,286046997.0,N
1516224615.5,286046997.0,N
1516224635.4,286047000.2,N
1516224655.2,286046996.6,N
1516224675.0,286046999.6,N
1516224675.9,286046999.6,N
1516224695.8,286046998.8,N
1516224715.6,286046997.4,N
1516224735.5,286046995.7,N
1516224755.3,286046993.7,N
1516224775.1,286046993.8,N
1516224795.9,286046996.0,N
1516224815.7,286046995.5,N
1516224835.5,286046995.7,N
1516224855.4,286046993.4,N
1516224875.2,286046994.2,N
1516224895.1,286046994.1,N
1516224896.0,286046994.1,N
1516224915.8,286046994.3,N
1516224935.6,286046996.3,N
1516224955.5,286046992.1,N
1516224975.3,286046994.2,N
1516224995.1,286046994.3,N
1516225015.9,286046996.6,N
1516225035.7,286046997.2,N
1516225055.6,286046995.0,N
1516225075.4,286046995.7,N
1516225095.2,286046995.8,N
1516225115.1,286046996.3,N
1516225116.0,286046996.3,N
1516225135.8,286046994.6,N
1516225155.6,286046994.6,N
1516225175.5,286046994.8,N
1516225195.3,286046994.0,Y
1516225215.2,286046998.7,P
1516225235.9,286046997.3,N
1516225255.7,286046998.9,N
1516225275.6,286046997.1,N
1516225295.4,286046999.4,N
1516225315.2,286047000.2,N
1516225335.1,286047000.8,N
1516225336.0,286047000.8,N
1516225355.8,286046996.5,N
1516225375.7,286046996.6,N
1516225395.5,286046997.4,N
1516225415.3,286046996.7,N
1516225435.2,286046998.4,N
1516225455.0,286046998.3,N
1516225455.9,286046998.3,N
1516225475.8,286046999.8,N
1516225495.6,286047000.8,N
1516225515.4,286046998.8,N
1516225535.3,286046999.2,N
1516225555.1,286046999.3,N
1516225575.8,286046996.5,N
1516225595.7,286046997.1,N
1516225615.5,286046997.1,N
1516225635.4,286047002.2,N
1516225655.2,286047001.6,N
1516225675.0,286047000.5,N
1516225675.9,286047000.5,N
1516225695.8,286047000.8,N
1516225715.6,286047000.5,N
1516225735.4,286046998.4,N
1516225755.3,286046998.5,N
1516225775.1,286046998.3,N
1516225795.9,286046998.1,N
1516225815.7,286046999.2,N
1516225835.5,286046999.6,N
1516225855.4,286046996.5,N
1516225875.2,286046996.8,N
1516225895.1,286046999.3,N
1516225896.0,286046999.3,N
1516225915.8,286047000.8,N
1516225935.6,286046998.2,N
1516225955.5,286047001.1,N
1516225975.3,286046999.9,N
1516225995.1,286047001.7,N
1516226015.9,286047001.4,N
1516226035.7,286047002.4,N
1516226055.6,286046999.7,N
1516226075.4,286047003.3,N
1516226095.2,286047006.8,Y
1516226115.1,286047004.7,P
1516226116.0,286047004.7,N
1516226135.8,286047005.5,N
1516226155.7,286047002.9,N
1516226175.5,286047004.8,N
1516226195.3,286047010.5,Y
1516226215.2,286047009.7,P
1516226235.0,286047015.0,P
1516226235.9,286047015.0,P
1516226255.8,286047012.8,N
1516226275.6,286047014.9,Y
1516226295.4,286047005.3,P
1516226315.3,286047003.6,N
1516226335.1,286047001.0,N
1516226355.9,286047000.6,N
1516226375.7,286047000.9,N
1516226395.5,286047000.9,N
